CW7218 Weather Reports


Display with metric or nautical units.
time (UTC)temp
F
wind
direction
speed
MPH
gust
MPH
rain 1hr
in
rain 24hr
in
rain mn
in
humidity
%
barometer
mb
20260901032028 69 135 1.0 4.0 0.00 0.00 0.00 84 1023.3
20260901031028 69 113 1.0 4.0 0.00 0.00 0.00 83 1023.3
20260901030028 69 0.0 2.0 0.00 0.00 0.00 83 1023.3
20260901025028 69 90 1.0 3.0 0.00 0.00 0.00 83 1023.5
20260901024028 69 90 1.0 3.0 0.00 0.00 0.00 82 1023.7
20260901023028 69 135 1.0 3.0 0.00 0.00 0.00 82 1023.8
20260901022028 69 158 1.0 3.0 0.00 0.00 0.00 82 1023.8
20260901021028 69 158 1.0 3.0 0.00 0.00 0.00 81 1023.8
20260901020048 69 158 1.0 3.0 0.00 0.00 0.00 81 1023.6
20260901015028 69 135 1.0 3.0 0.00 0.00 0.00 81 1023.7
20260901014028 69 158 1.0 3.0 0.00 0.00 0.00 81 1023.8
20260901013028 69 158 1.0 4.0 0.00 0.00 0.00 80 1023.7
20260901012048 69 158 2.0 4.0 0.00 0.00 0.00 80 1023.7
20260901011028 70 158 2.0 4.0 0.00 0.00 0.00 80 1023.8
20260901010028 69 158 2.0 3.0 0.00 0.00 0.00 80 1023.6
20260901005028 69 203 3.0 5.0 0.00 0.00 0.00 80 1023.7
20260901004028 70 203 3.0 5.0 0.00 0.00 0.00 79 1023.9
20260901003028 70 203 4.0 6.0 0.00 0.00 0.00 79 1023.9
20260901002028 70 203 2.0 4.0 0.00 0.00 0.00 79 1023.9
20260901001028 70 180 2.0 4.0 0.00 0.00 0.00 79 1023.9
20260901000048 70 180 2.0 3.0 0.00 0.00 0.00 79 1023.8
20260831235029 70 180 1.0 3.0 0.00 0.00 0.00 78 1023.7
20260831234028 70 158 2.0 4.0 0.00 0.00 0.00 78 1023.6
20260831233029 71 113 1.0 3.0 0.00 0.00 0.00 77 1023.7
20260831232029 71 0.0 3.0 0.00 0.00 0.00 77 1023.6
20260831231108 71 0.0 3.0 0.00 0.00 0.00 77 1023.6
20260831230029 71 158 1.0 3.0 0.00 0.00 0.00 76 1023.7
20260831225028 71 135 1.0 4.0 0.00 0.00 0.00 77 1023.8
20260831224028 71 180 1.0 3.0 0.00 0.00 0.00 77 1023.7
20260831223028 71 203 1.0 4.0 0.00 0.00 0.00 77 1023.7
20260831222028 71 180 2.0 4.0 0.00 0.00 0.00 77 1023.7
20260831221028 71 180 2.0 4.0 0.00 0.00 0.00 77 1023.6
20260831220028 71 180 2.0 5.0 0.00 0.00 0.00 76 1023.6
20260831215028 71 135 1.0 4.0 0.00 0.00 0.00 75 1023.6
20260831214028 72 135 1.0 4.0 0.00 0.00 0.00 75 1023.5
20260831213028 72 135 3.0 7.0 0.00 0.00 0.00 75 1023.3
20260831212048 72 135 3.0 6.0 0.00 0.00 0.00 76 1023.3
20260831211028 72 180 4.0 7.0 0.00 0.00 0.00 77 1023.3
20260831210028 72 180 4.0 9.0 0.00 0.00 0.00 78 1023.1
20260831205048 72 180 4.0 8.0 0.00 0.00 0.00 79 1023.1
20260831204028 72 180 5.0 10.0 0.00 0.00 0.00 79 1023.0
20260831203028 72 203 7.0 11.0 0.00 0.00 0.00 79 1022.7
20260831202028 72 203 8.0 11.0 0.00 0.00 0.00 79 1022.5
20260831201028 73 203 6.0 12.0 0.00 0.00 0.00 78 1022.6
20260831200028 73 203 7.0 13.0 0.00 0.00 0.00 78 1022.2
20260831195028 73 180 7.0 13.0 0.00 0.00 0.00 78 1022.1
20260831194048 74 180 6.0 13.0 0.00 0.00 0.00 77 1022.0
20260831193028 74 203 7.0 12.0 0.00 0.00 0.00 76 1021.6
20260831192028 74 180 6.0 11.0 0.00 0.00 0.00 75 1021.5
20260831191028 74 203 7.0 12.0 0.00 0.00 0.00 75 1021.3
20260831190028 75 203 8.0 11.0 0.00 0.00 0.00 74 1020.9
20260831185028 75 180 5.0 11.0 0.00 0.00 0.00 74 1020.9
20260831184028 75 180 4.0 7.0 0.00 0.00 0.00 73 1020.8
20260831183028 75 180 5.0 8.0 0.00 0.00 0.00 73 1020.7
20260831182027 76 180 5.0 11.0 0.00 0.00 0.00 72 1020.7
20260831181027 76 158 4.0 8.0 0.00 0.00 0.00 71 1020.7
20260831180028 77 180 5.0 8.0 0.00 0.00 0.00 71 1020.5
20260831175047 77 180 7.0 13.0 0.00 0.00 0.00 70 1020.5
20260831174027 77 180 6.0 13.0 0.00 0.00 0.00 69 1020.4
20260831173027 78 180 8.0 14.0 0.00 0.00 0.00 68 1020.4
20260831172027 78 180 8.0 14.0 0.00 0.00 0.00 67 1020.2
20260831171027 79 0 9.0 16.0 0.00 0.00 0.00 66 1020.3
20260831170027 79 0 10.0 19.0 0.00 0.00 0.00 65 1020.2
20260831165047 79 158 9.0 17.0 0.00 0.00 0.00 64 1020.1
20260831164027 80 180 10.0 19.0 0.00 0.00 0.00 62 1020.0
20260831163047 81 180 10.0 18.0 0.00 0.00 0.00 60 1020.2
20260831162027 81 203 12.0 20.0 0.00 0.00 0.00 59 1020.2
20260831161027 81 0 13.0 21.0 0.00 0.00 0.00 59 1020.1
20260831160027 82 0 13.0 24.0 0.00 0.00 0.00 56 1020.0
20260831155027 83 0 12.0 19.0 0.00 0.00 0.00 53 1020.1
20260831154027 84 0 11.0 20.0 0.00 0.00 0.00 47 1020.1
20260831153027 86 0 9.0 16.0 0.00 0.00 0.00 42 1020.3
20260831152027 87 0 8.0 15.0 0.00 0.00 0.00 34 1020.0
20260831151027 86 0 8.0 17.0 0.00 0.00 0.00 37 1020.1
20260831150027 86 0 8.0 15.0 0.00 0.00 0.00 39 1020.1
20260831145047 86 0 8.0 18.0 0.00 0.00 0.00 37 1020.1
20260831144027 86 0 8.0 18.0 0.00 0.00 0.00 37 1020.2
20260831143027 86 0 8.0 15.0 0.00 0.00 0.00 39 1020.4
20260831142047 86 0 6.0 14.0 0.00 0.00 0.00 39 1020.5
20260831141027 85 135 5.0 13.0 0.00 0.00 0.00 39 1020.5
20260831140027 85 158 5.0 11.0 0.00 0.00 0.00 38 1020.7
20260831135027 85 135 6.0 16.0 0.00 0.00 0.00 39 1020.7
20260831134027 83 113 6.0 15.0 0.00 0.00 0.00 40 1020.8
20260831133027 83 113 6.0 13.0 0.00 0.00 0.00 41 1020.9
20260831132027 84 113 4.0 11.0 0.00 0.00 0.00 41 1021.0
20260831131049 84 135 5.0 12.0 0.00 0.00 0.00 41 1021.1
20260831130029 84 90 3.0 8.0 0.00 0.00 0.00 40 1021.3
20260831125029 83 135 5.0 12.0 0.00 0.00 0.00 40 1021.3
20260831124029 83 180 4.0 10.0 0.00 0.00 0.00 41 1021.5
20260831123029 82 158 3.0 8.0 0.00 0.00 0.00 40 1021.5
20260831122028 82 158 5.0 10.0 0.00 0.00 0.00 39 1021.6
20260831121029 82 0 6.0 12.0 0.00 0.00 0.00 38 1021.6
20260831120028 82 180 3.0 8.0 0.00 0.00 0.00 38 1021.8
20260831115049 81 135 5.0 10.0 0.00 0.00 0.00 39 1021.9
20260831114029 81 0 5.0 10.0 0.00 0.00 0.00 39 1021.9
20260831113049 81 158 3.0 8.0 0.00 0.00 0.00 39 1021.7
20260831112028 80 180 4.0 11.0 0.00 0.00 0.00 41 1021.9
20260831111029 80 180 4.0 10.0 0.00 0.00 0.00 43 1021.8
20260831110048 79 158 4.0 9.0 0.00 0.00 0.00 42 1021.9
20260831105028 78 180 5.0 10.0 0.00 0.00 0.00 43 1022.0
20260831104029 79 158 3.0 8.0 0.00 0.00 0.00 42 1022.0
20260831103028 79 158 4.0 12.0 0.00 0.00 0.00 42 1022.2
20260831102028 79 0 4.0 12.0 0.00 0.00 0.00 41 1022.1
20260831101028 79 158 3.0 7.0 0.00 0.00 0.00 42 1022.2
20260831100109 78 158 3.0 8.0 0.00 0.00 0.00 43 1022.1
20260831095028 77 180 4.0 8.0 0.00 0.00 0.00 46 1022.1
20260831094028 77 180 4.0 8.0 0.00 0.00 0.00 46 1022.1
20260831093028 77 203 2.0 6.0 0.00 0.00 0.00 47 1022.2
20260831092028 77 180 3.0 6.0 0.00 0.00 0.00 48 1022.2
20260831091028 77 180 4.0 7.0 0.00 0.00 0.00 48 1022.2
20260831090048 76 180 3.0 7.0 0.00 0.00 0.00 49 1022.1
20260831085028 76 0 4.0 8.0 0.00 0.00 0.00 50 1022.1
20260831084028 77 158 3.0 6.0 0.00 0.00 0.00 49 1022.0
20260831083028 77 158 2.0 5.0 0.00 0.00 0.00 48 1022.1
20260831082028 76 158 2.0 4.0 0.00 0.00 0.00 52 1022.0
20260831081028 76 158 2.0 5.0 0.00 0.00 0.00 53 1021.8
20260831080028 76 158 1.0 3.0 0.00 0.00 0.00 51 1021.8
20260831075028 75 68 1.0 3.0 0.00 0.00 0.00 54 1021.8
20260831074028 73 0 1.0 2.0 0.00 0.00 0.00 56 1021.6
20260831073048 72 45 1.0 4.0 0.00 0.00 0.00 58 1021.5
20260831072028 70 68 3.0 7.0 0.00 0.00 0.00 60 1021.3
20260831071028 70 68 3.0 6.0 0.00 0.00 0.00 60 1021.3
20260831070028 68 68 4.0 9.0 0.00 0.00 0.00 63 1021.2
20260831065048 67 45 5.0 9.0 0.00 0.00 0.00 64 1020.9
20260831064028 67 45 5.0 9.0 0.00 0.00 0.00 63 1020.8
20260831063028 67 45 6.0 9.0 0.00 0.00 0.00 63 1020.8
20260831062028 66 45 5.0 8.0 0.00 0.00 0.00 64 1020.7
20260831061028 66 23 6.0 9.0 0.00 0.00 0.00 65 1020.5
20260831060048 65 45 5.0 9.0 0.00 0.00 0.00 65 1020.6
20260831055027 65 23 7.0 10.0 0.00 0.00 0.00 65 1020.4
20260831054028 65 23 7.0 12.0 0.00 0.00 0.00 66 1020.4
20260831053027 65 45 7.0 11.0 0.00 0.00 0.00 66 1020.3
20260831052027 64 68 7.0 9.0 0.00 0.00 0.00 67 1020.1
20260831051028 65 45 5.0 8.0 0.00 0.00 0.00 65 1020.0
20260831050027 65 45 5.0 8.0 0.00 0.00 0.00 66 1020.1
20260831045028 65 45 5.0 8.0 0.00 0.00 0.00 65 1020.2
20260831044027 65 45 6.0 10.0 0.00 0.00 0.00 66 1020.2
20260831043027 65 45 7.0 10.0 0.00 0.00 0.00 66 1020.2
20260831042027 65 23 7.0 11.0 0.00 0.00 0.00 65 1020.2
20260831041048 65 23 7.0 12.0 0.00 0.00 0.00 65 1020.2
20260831040027 65 23 7.0 11.0 0.00 0.00 0.00 66 1020.4
20260831035027 65 45 9.0 12.0 0.00 0.00 0.00 65 1020.4
20260831034028 66 45 9.0 14.0 0.00 0.00 0.00 64 1020.3
20260831033027 66 68 8.0 12.0 0.00 0.00 0.00 64 1020.2